| time (UTC) | temp F | wind direction | speed knots | gust knots | rain 1hr in | rain 24hr in | rain mn in | humidity % | barometer mb |
| 20260504041552 | 50 | 131 | 0.0 | 0.0 | 0.00 | 0.00 | 0.00 | 80 | 1017.5 |
| 20260504040111 | 50 | 131 | 0.0 | 0.0 | 0.00 | 0.00 | 0.00 | 78 | 1017.5 |
| 20260504034548 | 51 | 131 | 0.0 | 0.0 | 0.00 | 0.00 | 0.00 | 78 | 1017.4 |
| 20260504033048 | 51 | 131 | 0.0 | 0.0 | 0.00 | 0.00 | 0.00 | 77 | 1017.3 |
| 20260504031551 | 52 | 131 | 0.0 | 0.0 | 0.00 | 0.00 | 0.00 | 75 | 1017.3 |
| 20260504030047 | 52 | 131 | 0.0 | 0.0 | 0.00 | 0.00 | 0.00 | 75 | 1017.3 |
| 20260504024548 | 52 | 131 | 0.0 | 0.0 | 0.00 | 0.00 | 0.00 | 75 | 1017.2 |
| 20260504023054 | 53 | 131 | 0.0 | 0.0 | 0.00 | 0.00 | 0.00 | 73 | 1017.1 |
| 20260504021550 | 53 | 131 | 0.0 | 0.0 | 0.00 | 0.00 | 0.00 | 73 | 1017.0 |
| 20260504020047 | 54 | 131 | 0.0 | 0.0 | 0.00 | 0.00 | 0.00 | 71 | 1016.9 |
| 20260504014557 | 55 | 131 | 0.0 | 0.0 | 0.00 | 0.00 | 0.00 | 70 | 1016.8 |
| 20260504013044 | 56 | 131 | 0.0 | 0.0 | 0.00 | 0.00 | 0.00 | 68 | 1016.8 |
| 20260504011545 | 58 | 131 | 0.0 | 0.0 | 0.00 | 0.00 | 0.00 | 64 | 1016.6 |
| 20260504010050 | 59 | 131 | 0.0 | 0.0 | 0.00 | 0.00 | 0.00 | 60 | 1016.4 |
| 20260504004549 | 61 | 131 | 0.0 | 0.0 | 0.00 | 0.00 | 0.00 | 58 | 1016.4 |
| 20260504003054 | 62 | 131 | 0.0 | 0.9 | 0.00 | 0.00 | 0.00 | 51 | 1016.3 |
| 20260504001600 | 63 | 165 | 0.0 | 1.7 | 0.00 | 0.00 | 0.00 | 48 | 1016.3 |
| 20260504000042 | 65 | 53 | 0.0 | 0.0 | 0.00 | 0.00 | 0.00 | 47 | 1016.4 |
| 20260503234540 | 67 | 50 | 0.0 | 2.6 | 0.00 | 0.00 | 0.00 | 41 | 1016.4 |
| 20260503233042 | 68 | 53 | 0.0 | 2.6 | 0.00 | 0.00 | 0.00 | 38 | 1016.3 |
| 20260503231539 | 72 | 356 | 0.0 | 2.6 | 0.00 | 0.00 | 0.00 | 35 | 1016.5 |
| 20260503230038 | 72 | 170 | 0.9 | 3.5 | 0.00 | 0.00 | 0.00 | 34 | 1016.6 |
| 20260503224537 | 74 | 23 | 0.0 | 3.5 | 0.00 | 0.00 | 0.00 | 35 | 1016.5 |
| 20260503223037 | 74 | 151 | 0.0 | 2.6 | 0.00 | 0.00 | 0.00 | 32 | 1016.7 |
| 20260503221536 | 74 | 82 | 0.9 | 3.5 | 0.00 | 0.00 | 0.00 | 33 | 1016.8 |
| 20260503220034 | 73 | 179 | 0.0 | 2.6 | 0.00 | 0.00 | 0.00 | 34 | 1016.8 |
| 20260503214531 | 73 | 201 | 0.9 | 4.3 | 0.00 | 0.00 | 0.00 | 33 | 1016.7 |
| 20260503213029 | 73 | 231 | 0.0 | 3.5 | 0.00 | 0.00 | 0.00 | 36 | 1017.0 |
| 20260503211526 | 72 | 110 | 0.9 | 3.5 | 0.00 | 0.00 | 0.00 | 38 | 1017.4 |
| 20260503210024 | 73 | 218 | 0.0 | 4.3 | 0.00 | 0.00 | 0.00 | 36 | 1017.4 |
| 20260503204528 | 73 | 166 | 0.9 | 4.3 | 0.00 | 0.00 | 0.00 | 35 | 1017.6 |
| 20260503203020 | 73 | 231 | 0.0 | 2.6 | 0.00 | 0.00 | 0.00 | 35 | 1017.9 |
| 20260503201519 | 72 | 214 | 0.0 | 3.5 | 0.00 | 0.00 | 0.00 | 35 | 1018.1 |
| 20260503200019 | 71 | 213 | 0.9 | 3.5 | 0.00 | 0.00 | 0.00 | 35 | 1018.2 |
| 20260503194514 | 71 | 10 | 0.9 | 6.1 | 0.00 | 0.00 | 0.00 | 32 | 1018.4 |
| 20260503193029 | 70 | 95 | 0.0 | 4.3 | 0.00 | 0.00 | 0.00 | 35 | 1018.7 |
| 20260503191508 | 70 | 217 | 0.9 | 3.5 | 0.00 | 0.00 | 0.00 | 34 | 1018.9 |
| 20260503190009 | 70 | 16 | 0.0 | 4.3 | 0.00 | 0.00 | 0.00 | 37 | 1019.1 |
| 20260503184506 | 68 | 330 | 0.0 | 4.3 | 0.00 | 0.00 | 0.00 | 39 | 1019.4 |
| 20260503183002 | 69 | 223 | 0.9 | 2.6 | 0.00 | 0.00 | 0.00 | 38 | 1019.6 |
| 20260503181620 | 67 | 168 | 0.0 | 2.6 | 0.00 | 0.00 | 0.00 | 45 | 1019.9 |
| 20260503174556 | 66 | 69 | 0.9 | 2.6 | 0.00 | 0.00 | 0.00 | 42 | 1020.2 |
| 20260503173057 | 65 | 320 | 0.0 | 2.6 | 0.00 | 0.00 | 0.00 | 43 | 1020.5 |
| 20260503171556 | 64 | 170 | 0.0 | 3.5 | 0.00 | 0.00 | 0.00 | 41 | 1020.6 |
| 20260503100103 | 42 | 207 | 0.0 | 0.0 | 0.00 | 0.00 | 0.00 | 89 | 1019.7 |
| 20260503081529 | 46 | 152 | 0.0 | 0.0 | 0.00 | 0.00 | 0.00 | 84 | 1018.7 |
| 20260503071527 | 46 | 155 | 0.0 | 0.0 | 0.00 | 0.00 | 0.00 | 86 | 1018.6 |
| 20260503054511 | 48 | 155 | 0.0 | 0.0 | 0.00 | 0.00 | 0.00 | 80 | 1018.5 |
| 20260503053012 | 48 | 155 | 0.0 | 0.0 | 0.00 | 0.00 | 0.00 | 80 | 1018.5 |
| 20260503051509 | 49 | 155 | 0.0 | 0.0 | 0.00 | 0.00 | 0.00 | 78 | 1018.2 |
| 20260503050005 | 48 | 155 | 0.0 | 0.0 | 0.00 | 0.00 | 0.00 | 79 | 1018.1 |
| 20260503044504 | 48 | 155 | 0.0 | 0.0 | 0.00 | 0.00 | 0.00 | 78 | 1017.9 |
| 20260503043101 | 48 | 155 | 0.0 | 0.0 | 0.00 | 0.00 | 0.00 | 77 | 1017.8 |